[Iaude] MPEC C52: 2024 CR [a=1.15,e=0.33,i=7.5,H=27.0]
    mpec at marsden.cfa.harvard.edu 
    mpec at marsden.cfa.harvard.edu
       
    Mon Feb  5 09:23:01 EST 2024
    
    
  
M.P.E.C. 2024-C52                              Issued 2024 February 5, 14:21 UT
     The Minor Planet Electronic Circulars contain information on unusual
         minor planets, routine data on comets and natural satellites,
         and occasional editorial announcements.  They are published
    on behalf of Division F of the International Astronomical Union by the
          Minor Planet Center, Smithsonian Astrophysical Observatory,
                          Cambridge, MA 02138, U.S.A.
			  
             Prepared using the Tamkin Foundation Computer Network
                              MPC at CFA.HARVARD.EDU
            URL https://www.minorplanetcenter.net/    ISSN 1523-6714
                                    2024 CR                                     
Observations:
     K24C00R* C2024 02 04.35243209 08 37.552+15 12 39.19         20.47wXEC052F52
     K24C00R  C2024 02 04.36423409 08 36.717+15 15 01.00         20.15wXEC052F52
     K24C00R  C2024 02 04.37603909 08 35.846+15 17 22.30         20.40wXEC052F52
     K24C00R  C2024 02 04.38782209 08 34.947+15 19 42.50         20.01wXEC052F52
     K24C00R  C2024 02 04.56823509 08 21.538+15 54 04.20         20.02GVEC052F52
     K24C00R  C2024 02 04.56888009 08 21.505+15 54 11.15         19.87GVEC052F52
     K24C00R KC2024 02 05.13792609 08 38.64 +17 32 38.8          20.4 GVEC052H21
     K24C00R KC2024 02 05.14352309 08 38.38 +17 33 34.5          20.7 GVEC052H21
     K24C00R KC2024 02 05.14911609 08 38.11 +17 34 29.6          20.5 GVEC052H21
     K24C00R KC2024 02 05.15030709 08 40.80 +17 34 43.7          20.1 GXEC052858
     K24C00R KC2024 02 05.15330909 08 37.90 +17 35 11.2          20.1 GVEC052H21
     K24C00R KC2024 02 05.15693709 08 40.50 +17 35 50.3          20.1 GXEC052858
     K24C00R KC2024 02 05.16478009 08 40.18 +17 37 08.2          19.8 GXEC052858
     K24C00R mC2024 02 05.47274609 08 23.550+18 25 14.84         22.28GVEC052I52
     K24C00R mC2024 02 05.47544209 08 23.453+18 25 37.49         20.58GVEC052I52
     K24C00R mC2024 02 05.47814009 08 23.320+18 26 01.72         21.09GVEC052I52
     K24C00R mC2024 02 05.47855309 08 23.356+18 26 04.60         20.80GVEC052I52
Observer details:
858 Tebbutt Observatory, Edgewood.  Observer F. B. Zoltowski.  0.51-m f/8.1
    Schmidt-Cassegrain + CCD.
F52 Pan-STARRS 2, Haleakala.  Observers J. Herman, T. Lowe, P. Minguez, A.
    Schultz, I. Smith.  Measurers K. Chambers, T. de Boer, J. Fairlamb, H.
    Gao, M. Huber, C.-C. Lin, E. Magnier, Y. Ramanjooloo, R. Wainscoat, R.
    Weryk.  1.8-m Ritchey-Chretien + CCD.
H21 Astronomical Research Observatory, Westfield.  Observer R. Holmes.
    Measurers T. Linder, R. Holmes, L. Horn.  0.76-m f/3.0 astrograph + CCD.
I52 Steward Observatory, Mt. Lemmon Station.  Observer H. Groeller.  Measurers
    E. C. Beshore, D. Fay, J. B. Fazekas, D. C. Fuls, A. R. Gibbs, A. D.
    Grauer, H. Groeller, J. K. Hogan, R. A. Kowalski, S. M. Larson, G. J.
    Leonard, D. Rankin, R. L. Seaman, F. C. Shelly, K. W. Wierzchos.  1.0-m
    prime focus + CCD.
Orbital elements:
2024 CR                                                  Earth MOID = 0.0010 AU
Epoch 2023 Sept. 13.0 TT = JDT 2460200.5                Bell                    
M 298.03823              (2000.0)            P               Q                  
n   0.79649515     Peri.  268.84311     +0.71367316     -0.69437550             
a   1.1526053      Node   135.12462     +0.68338974     +0.66127769             
e   0.3343560      Incl.    7.51413     +0.15378260     +0.28382122             
P   1.24           H   27.08          G   0.15           U   7                  
Residuals in seconds of arc
240204 F52  0.3-  0.1+    240205 H21  0.1-  0.2+    240205 858  0.4-  0.0
240204 F52  0.3-  0.1+    240205 H21  0.0   0.2+    240205 I52  0.2+  0.6+
240204 F52  0.3-  0.2+    240205 H21  0.1+  0.2-    240205 I52  0.1+  0.4-
240204 F52  0.3-  0.2+    240205 858  0.1+  0.4-    240205 I52  0.5-  0.2+
240204 F52  0.1+  0.0     240205 H21  0.1+  0.1-    240205 I52  0.2+  0.6-
240204 F52  0.1+  0.1-    240205 858  0.5-  0.1+
Ephemeris:
2024 CR                  a,e,i = 1.15, 0.33, 8                   q = 0.7672
Date    TT    R. A. (2000) Decl.     Delta      r    Elong.  Phase     V
2024 01 06    21 02 33.6 -44 37 14   0.1398  0.8690    32.7   142.3    29.7
...
2024 01 21    21 10 29.9 -59 30 07   0.04936 0.9472    40.9   137.2    26.9
...
2024 01 29    09 06 43.3 -47 24 14   0.01737 0.9921   114.2    64.9    20.6
...
2024 02 04    09 08 29.4 +14 00 00   0.04049 1.0261   177.4     2.5    20.4
2024 02 05    09 08 31.7 +17 11 03   0.04598 1.0318   178.9     1.1    20.6
2024 02 06    09 08 33.4 +19 40 53   0.05161 1.0375   175.9     3.9    21.1
...
2024 02 12    09 08 47.3 +27 32 38   0.08721 1.0714   164.8    14.0    22.7
...
2024 02 20    09 10 05.8 +31 03 59   0.1381  1.1160   155.8    21.3    24.1
...
2024 03 06    09 16 41.4 +32 06 08   0.2435  1.1958   143.1    29.8    25.7
M. P. C. Staff               (C) Copyright 2024 MPC           M.P.E.C. 2024-C52
    
    
More information about the Iaude
mailing list